RYR7VE EIDW-LFBZ

Flight info

Callsign RYR7VE
Flight time 1h 46m
Altitude 33000
Route PESIT2J PESIT DCT BAKUR DCT GUBJE DCT GISOK DCT TACQI DCT MANIG DCT KORER UM616 TUPAR DCT CNA DCT VAVIX/N0339F190 DCT MAGEC
Aircraft B738/M-SDE2E3FGHIRWXY/LB1

Departure

Time 2026-05-08 05:59
Airport Dublin Airport (EIDW)

Arrival

Time 2026-05-08 07:46
Airport Biarritz Pays Basque airport (LFBZ)
Time Latitude Longitude Altitude Speed Heading
2026-05-08 05:44 53.42997 -6.24748 215 ft 0 kts
2026-05-08 05:51 53.42977 -6.24751 213 ft 4 kts
2026-05-08 05:51 53.42960 -6.24754 210 ft 4 kts
2026-05-08 05:51 53.42938 -6.24734 215 ft 4 kts 281°
2026-05-08 05:51 53.42937 -6.24718 213 ft 2 kts 275°
2026-05-08 05:52 53.42938 -6.24745 210 ft 2 kts 275°
2026-05-08 05:52 53.42938 -6.24748 210 ft 1 kts 275°
2026-05-08 05:55 53.42939 -6.24762 218 ft 3 kts 275°
2026-05-08 05:55 53.42933 -6.24834 210 ft 9 kts 243°
2026-05-08 05:55 53.42880 -6.24938 214 ft 12 kts 227°
2026-05-08 05:55 53.42817 -6.25037 214 ft 15 kts 210°
2026-05-08 05:56 53.42748 -6.25122 210 ft 11 kts 199°
2026-05-08 05:56 53.42664 -6.25080 215 ft 15 kts 155°
2026-05-08 05:56 53.42548 -6.24997 210 ft 20 kts 157°
2026-05-08 05:56 53.42417 -6.24901 214 ft 20 kts 157°
2026-05-08 05:57 53.42291 -6.24810 210 ft 17 kts 158°
2026-05-08 05:57 53.42203 -6.24751 210 ft 11 kts 165°
2026-05-08 05:57 53.42134 -6.24790 210 ft 11 kts 224°
2026-05-08 05:57 53.42081 -6.24879 210 ft 11 kts 225°
2026-05-08 05:58 53.42034 -6.24970 214 ft 10 kts 244°
2026-05-08 05:58 53.42027 -6.25086 214 ft 6 kts 279°
2026-05-08 05:58 53.42028 -6.25102 212 ft 0 kts 274°
2026-05-08 05:58 53.42028 -6.25106 212 ft 3 kts 274°
2026-05-08 05:59 53.42049 -6.25512 220 ft 72 kts 275°
2026-05-08 05:59 53.42117 -6.26748 210 ft 138 kts 275°
2026-05-08 05:59 53.42215 -6.28616 499 ft 166 kts 274°
2026-05-08 05:59 53.42310 -6.30503 1414 ft 163 kts 275°
2026-05-08 06:00 53.42427 -6.32458 2104 ft 174 kts 275°
2026-05-08 06:00 53.42559 -6.34710 2470 ft 207 kts 275°
2026-05-08 06:00 53.42703 -6.37258 2761 ft 229 kts 274°
2026-05-08 06:00 53.42855 -6.40000 3349 ft 237 kts 274°
2026-05-08 06:01 53.43007 -6.42772 4021 ft 242 kts 274°
2026-05-08 06:01 53.42796 -6.45647 4446 ft 257 kts 244°
2026-05-08 06:01 53.41664 -6.47951 5244 ft 261 kts 213°
2026-05-08 06:01 53.39984 -6.48967 6261 ft 260 kts 183°
2026-05-08 06:02 53.38187 -6.48614 7168 ft 263 kts 167°
2026-05-08 06:02 53.36408 -6.47791 8028 ft 267 kts 165°
2026-05-08 06:02 53.34613 -6.46919 8672 ft 269 kts 165°
2026-05-08 06:02 53.32797 -6.46068 8989 ft 273 kts 166°
2026-05-08 06:03 53.30955 -6.45227 8983 ft 274 kts 166°
2026-05-08 06:03 53.29138 -6.44279 9031 ft 275 kts 159°
2026-05-08 06:03 53.27369 -6.42943 9557 ft 281 kts 156°
2026-05-08 06:03 53.25612 -6.41519 10448 ft 283 kts 156°
2026-05-08 06:04 53.23773 -6.40029 10735 ft 307 kts 156°
2026-05-08 06:04 53.21780 -6.38430 11082 ft 326 kts 156°
2026-05-08 06:04 53.19709 -6.36782 11758 ft 333 kts 157°
2026-05-08 06:04 53.17603 -6.35118 12545 ft 337 kts 157°
2026-05-08 06:05 53.15468 -6.33442 13332 ft 342 kts 157°
2026-05-08 06:05 53.13300 -6.31747 14062 ft 347 kts 158°
2026-05-08 06:05 53.11107 -6.30037 14781 ft 349 kts 158°
2026-05-08 06:05 53.08901 -6.28321 15551 ft 351 kts 158°
2026-05-08 06:06 53.06672 -6.26590 16245 ft 356 kts 158°
2026-05-08 06:06 53.04416 -6.24840 16971 ft 359 kts 158°
2026-05-08 06:06 53.02145 -6.23080 17726 ft 361 kts 158°
2026-05-08 06:06 52.99858 -6.21309 18429 ft 364 kts 158°
2026-05-08 06:07 52.97550 -6.19527 19029 ft 368 kts 158°
2026-05-08 06:07 52.95214 -6.17725 19593 ft 372 kts 158°
2026-05-08 06:07 52.92856 -6.15909 20179 ft 376 kts 159°
2026-05-08 06:07 52.90477 -6.14082 20757 ft 379 kts 159°
2026-05-08 06:08 52.88071 -6.12237 21336 ft 383 kts 159°
2026-05-08 06:08 52.85643 -6.10377 21905 ft 386 kts 159°
2026-05-08 06:08 52.83189 -6.08498 22399 ft 391 kts 159°
2026-05-08 06:08 52.80707 -6.06600 22906 ft 395 kts 159°
2026-05-08 06:09 52.78195 -6.04680 23013 ft 400 kts 159°
2026-05-08 06:09 52.75675 -6.02756 23028 ft 397 kts 158°
2026-05-08 06:09 52.73177 -6.00849 23026 ft 395 kts 158°
2026-05-08 06:09 52.70686 -5.98950 23036 ft 395 kts 159°
2026-05-08 06:10 52.68185 -5.97048 23037 ft 396 kts 159°
2026-05-08 06:10 52.65680 -5.95145 23036 ft 397 kts 159°
2026-05-08 06:10 52.63167 -5.93239 23035 ft 397 kts 159°
2026-05-08 06:10 52.60656 -5.91338 23018 ft 398 kts 158°
2026-05-08 06:11 52.58139 -5.89433 23025 ft 398 kts 158°
2026-05-08 06:11 52.55623 -5.87532 23032 ft 398 kts 158°
2026-05-08 06:11 52.53105 -5.85631 23035 ft 399 kts 158°
2026-05-08 06:11 52.50582 -5.83729 23034 ft 399 kts 158°
2026-05-08 06:12 52.48060 -5.81830 23035 ft 399 kts 158°
2026-05-08 06:12 52.45537 -5.79932 23035 ft 399 kts 158°
2026-05-08 06:12 52.43012 -5.78035 23030 ft 399 kts 158°
2026-05-08 06:12 52.40487 -5.76143 23034 ft 399 kts 159°
2026-05-08 06:13 52.37912 -5.74474 23082 ft 401 kts 165°
2026-05-08 06:13 52.35219 -5.73181 23537 ft 404 kts 167°
2026-05-08 06:13 52.32505 -5.71975 24086 ft 404 kts 167°
2026-05-08 06:13 52.29787 -5.70725 24560 ft 407 kts 167°
2026-05-08 06:14 52.27059 -5.69415 24967 ft 411 kts 166°
2026-05-08 06:14 52.24311 -5.68064 25368 ft 415 kts 166°
2026-05-08 06:14 52.21582 -5.66448 25778 ft 420 kts 161°
2026-05-08 06:14 52.18872 -5.64602 26193 ft 424 kts 160°
2026-05-08 06:15 52.16158 -5.62692 26579 ft 427 kts 160°
2026-05-08 06:15 52.13418 -5.60781 26912 ft 431 kts 160°
2026-05-08 06:15 52.10638 -5.58880 27254 ft 435 kts 161°
2026-05-08 06:15 52.07833 -5.56993 27637 ft 438 kts 161°
2026-05-08 06:16 52.05008 -5.55105 28019 ft 440 kts 161°
2026-05-08 06:16 52.02190 -5.53118 28431 ft 443 kts 159°
2026-05-08 06:16 51.99410 -5.50969 28944 ft 443 kts 158°
2026-05-08 06:16 51.96652 -5.48759 29485 ft 441 kts 158°
2026-05-08 06:17 51.91149 -5.44330 30352 ft 442 kts 158°
2026-05-08 06:17 51.88385 -5.42132 30663 ft 444 kts 158°
2026-05-08 06:17 51.85598 -5.39932 31025 ft 444 kts 159°
2026-05-08 06:18 51.82828 -5.37755 31437 ft 444 kts 159°
2026-05-08 06:18 51.80050 -5.35580 31819 ft 443 kts 159°
2026-05-08 06:18 51.77269 -5.33407 32166 ft 444 kts 159°
2026-05-08 06:18 51.74489 -5.31239 32538 ft 444 kts 159°
2026-05-08 06:19 51.71707 -5.29071 32922 ft 444 kts 160°
2026-05-08 06:19 51.68915 -5.26899 32998 ft 449 kts 160°
2026-05-08 06:19 51.63285 -5.22526 33014 ft 447 kts 160°
2026-05-08 06:20 51.57738 -5.18221 33022 ft 441 kts 160°
2026-05-08 06:20 51.52229 -5.13965 33031 ft 443 kts 159°
2026-05-08 06:21 51.47098 -5.08296 33035 ft 455 kts 143°
2026-05-08 06:21 51.42382 -5.01494 33020 ft 456 kts 142°
2026-05-08 06:22 51.38429 -4.95804 33024 ft 456 kts 142°
2026-05-08 06:22 51.33673 -4.89065 33022 ft 456 kts 143°
2026-05-08 06:23 51.28905 -4.82373 33017 ft 456 kts 143°
2026-05-08 06:23 51.24137 -4.75704 33003 ft 456 kts 142°
2026-05-08 06:24 51.19372 -4.69055 33023 ft 455 kts 142°
2026-05-08 06:24 51.14603 -4.62419 33013 ft 455 kts 142°
2026-05-08 06:25 51.09825 -4.55786 33014 ft 456 kts 142°
2026-05-08 06:25 51.05037 -4.49162 33023 ft 456 kts 143°
2026-05-08 06:26 50.99890 -4.43396 33024 ft 452 kts 152°
2026-05-08 06:26 50.94531 -4.38187 33020 ft 452 kts 153°
2026-05-08 06:27 50.89167 -4.32965 33008 ft 453 kts 153°
2026-05-08 06:27 50.83813 -4.27685 33012 ft 453 kts 152°
2026-05-08 06:28 50.78466 -4.22388 32998 ft 453 kts 152°
2026-05-08 06:28 50.73113 -4.17092 33017 ft 454 kts 152°
2026-05-08 06:29 50.67747 -4.11803 33020 ft 455 kts 152°
2026-05-08 06:29 50.62365 -4.06515 33027 ft 457 kts 152°
2026-05-08 06:30 50.56961 -4.01218 32999 ft 458 kts 152°
2026-05-08 06:30 50.51548 -3.95927 33008 ft 458 kts 152°
2026-05-08 06:31 50.46134 -3.90648 33024 ft 458 kts 152°
2026-05-08 06:31 50.40712 -3.85378 33006 ft 458 kts 152°
2026-05-08 06:32 50.35291 -3.80122 33005 ft 458 kts 152°
2026-05-08 06:32 50.29873 -3.74884 33018 ft 457 kts 152°
2026-05-08 06:33 50.24461 -3.69665 33015 ft 457 kts 152°
2026-05-08 06:33 50.19047 -3.64459 33015 ft 457 kts 152°
2026-05-08 06:34 50.13625 -3.59259 33000 ft 458 kts 152°
2026-05-08 06:34 50.08201 -3.54071 33015 ft 458 kts 152°
2026-05-08 06:35 50.02765 -3.48885 33021 ft 458 kts 152°
2026-05-08 06:35 49.97320 -3.43705 33019 ft 459 kts 152°
2026-05-08 06:36 49.91869 -3.38532 33008 ft 460 kts 152°
2026-05-08 06:36 49.86403 -3.33358 33019 ft 460 kts 152°
2026-05-08 06:37 49.80937 -3.28199 33016 ft 460 kts 153°
2026-05-08 06:37 49.75121 -3.24432 33014 ft 449 kts 172°
2026-05-08 06:38 49.69046 -3.22227 32994 ft 448 kts 172°
2026-05-08 06:38 49.62976 -3.20041 33017 ft 448 kts 172°
2026-05-08 06:39 49.56915 -3.17810 33017 ft 448 kts 172°
2026-05-08 06:39 49.50849 -3.15553 33020 ft 448 kts 172°
2026-05-08 06:40 49.44801 -3.13300 33016 ft 447 kts 172°
2026-05-08 06:40 49.38749 -3.11052 33011 ft 448 kts 172°
2026-05-08 06:41 49.32689 -3.08809 33023 ft 448 kts 172°
2026-05-08 06:41 49.26615 -3.06567 33028 ft 450 kts 172°
2026-05-08 06:42 49.20528 -3.04325 33019 ft 450 kts 172°
2026-05-08 06:42 49.14428 -3.02084 33019 ft 451 kts 172°
2026-05-08 06:43 49.08326 -2.99848 33018 ft 451 kts 172°
2026-05-08 06:43 49.02219 -2.97615 32999 ft 451 kts 172°
2026-05-08 06:44 48.96125 -2.95392 33013 ft 450 kts 172°
2026-05-08 06:44 48.90037 -2.93178 33015 ft 449 kts 172°
2026-05-08 06:45 48.83971 -2.90977 33004 ft 448 kts 172°
2026-05-08 06:45 48.77916 -2.88786 32999 ft 447 kts 172°
2026-05-08 06:46 48.71863 -2.86601 32999 ft 446 kts 172°
2026-05-08 06:46 48.65819 -2.84426 32996 ft 446 kts 172°
2026-05-08 06:47 48.59779 -2.82256 32985 ft 446 kts 172°
2026-05-08 06:47 48.53738 -2.80092 33001 ft 446 kts 172°
2026-05-08 06:48 48.47698 -2.77933 32999 ft 446 kts 172°
2026-05-08 06:48 48.41649 -2.75776 32999 ft 447 kts 172°
2026-05-08 06:49 48.35603 -2.73626 32986 ft 447 kts 172°
2026-05-08 06:49 48.29556 -2.71480 32993 ft 446 kts 172°
2026-05-08 06:50 48.23517 -2.69342 32984 ft 446 kts 172°
2026-05-08 06:50 48.17478 -2.67210 32970 ft 445 kts 172°
2026-05-08 06:51 48.11453 -2.65087 32980 ft 444 kts 172°
2026-05-08 06:51 48.05433 -2.62972 32979 ft 444 kts 172°
2026-05-08 06:52 47.99421 -2.60864 32980 ft 444 kts 172°
2026-05-08 06:52 47.93414 -2.58763 32971 ft 443 kts 172°
2026-05-08 06:53 47.87421 -2.56671 32979 ft 442 kts 172°
2026-05-08 06:53 47.81436 -2.54588 32974 ft 442 kts 172°
2026-05-08 06:54 47.75450 -2.52508 32954 ft 441 kts 172°
2026-05-08 06:54 47.69577 -2.49786 32971 ft 450 kts 155°
2026-05-08 06:55 47.66952 -2.47236 32975 ft 455 kts 143°
2026-05-08 06:55 47.64689 -2.43925 32976 ft 459 kts 133°
2026-05-08 06:55 47.60553 -2.36697 32967 ft 461 kts 131°
2026-05-08 06:56 47.56413 -2.29437 32959 ft 462 kts 132°
2026-05-08 06:56 47.52219 -2.22233 32967 ft 462 kts 133°
2026-05-08 06:57 47.48005 -2.15070 32974 ft 462 kts 133°
2026-05-08 06:57 47.43785 -2.07918 32962 ft 461 kts 133°
2026-05-08 06:58 47.39564 -2.00776 32972 ft 461 kts 133°
2026-05-08 06:58 47.35345 -1.93653 32963 ft 461 kts 133°
2026-05-08 06:59 47.31103 -1.86501 32965 ft 460 kts 133°
2026-05-08 06:59 47.27601 -1.80599 32971 ft 460 kts 133°
2026-05-08 07:00 47.23391 -1.73520 32965 ft 460 kts 133°
2026-05-08 07:00 47.19175 -1.66446 32966 ft 460 kts 133°
2026-05-08 07:01 47.14879 -1.59488 32963 ft 459 kts 139°
2026-05-08 07:01 47.10126 -1.53257 32974 ft 458 kts 141°
2026-05-08 07:02 47.05315 -1.47111 32975 ft 459 kts 141°
2026-05-08 07:02 47.00540 -1.40877 32969 ft 460 kts 140°
2026-05-08 07:03 46.95731 -1.34584 32955 ft 461 kts 140°
2026-05-08 07:03 46.90952 -1.28346 32967 ft 460 kts 140°
2026-05-08 07:04 46.86172 -1.22120 32979 ft 460 kts 140°
2026-05-08 07:04 46.81383 -1.15896 32969 ft 460 kts 140°
2026-05-08 07:05 46.76597 -1.09690 32969 ft 460 kts 140°
2026-05-08 07:05 46.71802 -1.03488 32969 ft 461 kts 140°
2026-05-08 07:06 46.67009 -0.97303 32969 ft 461 kts 140°
2026-05-08 07:06 46.62207 -0.91120 32965 ft 461 kts 140°
2026-05-08 07:07 46.57403 -0.84951 32969 ft 461 kts 140°
2026-05-08 07:07 46.52610 -0.78777 32957 ft 460 kts 140°
2026-05-08 07:08 46.47787 -0.72569 32959 ft 460 kts 140°
2026-05-08 07:08 46.42771 -0.66854 32959 ft 457 kts 153°
2026-05-08 07:09 46.36959 -0.63369 32970 ft 450 kts 167°
2026-05-08 07:09 46.30962 -0.60705 32952 ft 451 kts 167°
2026-05-08 07:10 46.24967 -0.58019 32962 ft 452 kts 167°
2026-05-08 07:10 46.18968 -0.55281 32956 ft 452 kts 166°
2026-05-08 07:11 46.12984 -0.52536 32945 ft 451 kts 166°
2026-05-08 07:11 46.06995 -0.49793 32947 ft 451 kts 166°
2026-05-08 07:12 46.01026 -0.47067 32951 ft 450 kts 166°
2026-05-08 07:12 45.95065 -0.44352 32943 ft 449 kts 167°
2026-05-08 07:13 45.89124 -0.41653 32950 ft 447 kts 167°
2026-05-08 07:13 45.83190 -0.38962 32954 ft 447 kts 167°
2026-05-08 07:14 45.77263 -0.36280 32940 ft 447 kts 167°
2026-05-08 07:14 45.71296 -0.33586 32959 ft 446 kts 167°
2026-05-08 07:15 45.65323 -0.31970 32972 ft 435 kts 184°
2026-05-08 07:15 45.59363 -0.32925 32975 ft 426 kts 197°
2026-05-08 07:16 45.53572 -0.34631 32946 ft 419 kts 197°
2026-05-08 07:16 45.50748 -0.35456 32737 ft 412 kts 197°
2026-05-08 07:16 45.48000 -0.36248 32502 ft 404 kts 197°
2026-05-08 07:17 45.45217 -0.37043 32130 ft 401 kts 197°
2026-05-08 07:17 45.42487 -0.37818 31793 ft 398 kts 197°
2026-05-08 07:17 45.39782 -0.38582 31433 ft 396 kts 197°
2026-05-08 07:17 45.37088 -0.39340 31077 ft 393 kts 197°
2026-05-08 07:18 45.34418 -0.40090 30738 ft 390 kts 197°
2026-05-08 07:18 45.31756 -0.40836 30399 ft 388 kts 197°
2026-05-08 07:18 45.29112 -0.41576 30059 ft 386 kts 196°
2026-05-08 07:18 45.26483 -0.42310 29666 ft 384 kts 196°
2026-05-08 07:19 45.23871 -0.43040 29302 ft 381 kts 196°
2026-05-08 07:19 45.21278 -0.43762 28929 ft 378 kts 196°
2026-05-08 07:19 45.18712 -0.44477 28561 ft 374 kts 196°
2026-05-08 07:19 45.16171 -0.45184 28241 ft 370 kts 196°
2026-05-08 07:20 45.13652 -0.45884 27883 ft 368 kts 195°
2026-05-08 07:20 45.11148 -0.46580 27526 ft 365 kts 195°
2026-05-08 07:20 45.08661 -0.47271 27188 ft 363 kts 195°
2026-05-08 07:20 45.06197 -0.47955 26849 ft 360 kts 195°
2026-05-08 07:21 45.03743 -0.48636 26513 ft 358 kts 195°
2026-05-08 07:21 45.01307 -0.49311 26180 ft 356 kts 195°
2026-05-08 07:21 44.98887 -0.49981 25847 ft 354 kts 195°
2026-05-08 07:21 44.96479 -0.50646 25523 ft 351 kts 194°
2026-05-08 07:22 44.94090 -0.51307 25203 ft 349 kts 194°
2026-05-08 07:22 44.91708 -0.51964 24879 ft 348 kts 194°
2026-05-08 07:22 44.89340 -0.52617 24558 ft 346 kts 194°
2026-05-08 07:22 44.86979 -0.53268 24240 ft 345 kts 194°
2026-05-08 07:23 44.84627 -0.53916 23908 ft 344 kts 194°
2026-05-08 07:23 44.82281 -0.54562 23584 ft 343 kts 193°
2026-05-08 07:23 44.79939 -0.55205 23203 ft 342 kts 193°
2026-05-08 07:23 44.77609 -0.55845 22840 ft 340 kts 193°
2026-05-08 07:24 44.75297 -0.56479 22506 ft 337 kts 193°
2026-05-08 07:24 44.73004 -0.57107 22181 ft 335 kts 193°
2026-05-08 07:24 44.70733 -0.57729 21876 ft 332 kts 193°
2026-05-08 07:24 44.68473 -0.58347 21541 ft 329 kts 193°
2026-05-08 07:25 44.66229 -0.58961 21227 ft 327 kts 193°
2026-05-08 07:25 44.64005 -0.59569 20908 ft 325 kts 193°
2026-05-08 07:25 44.59597 -0.60773 20289 ft 320 kts 193°
2026-05-08 07:26 44.57413 -0.61368 19978 ft 318 kts 192°
2026-05-08 07:26 44.55247 -0.61958 19679 ft 316 kts 192°
2026-05-08 07:26 44.53093 -0.62545 19377 ft 315 kts 192°
2026-05-08 07:26 44.50947 -0.63129 19072 ft 313 kts 192°
2026-05-08 07:27 44.48818 -0.63708 18776 ft 311 kts 192°
2026-05-08 07:27 44.46694 -0.64285 18475 ft 310 kts 192°
2026-05-08 07:27 44.44584 -0.64857 18167 ft 308 kts 192°
2026-05-08 07:27 44.42482 -0.65428 17825 ft 307 kts 192°
2026-05-08 07:28 44.40394 -0.65994 17521 ft 304 kts 192°
2026-05-08 07:28 44.38327 -0.66554 17213 ft 302 kts 192°
2026-05-08 07:28 44.36274 -0.67109 16926 ft 299 kts 192°
2026-05-08 07:28 44.34240 -0.67660 16613 ft 297 kts 192°
2026-05-08 07:29 44.32215 -0.68207 16314 ft 295 kts 192°
2026-05-08 07:29 44.30205 -0.68750 16019 ft 294 kts 192°
2026-05-08 07:29 44.28215 -0.69356 15721 ft 291 kts 199°
2026-05-08 07:29 44.26431 -0.70607 15559 ft 284 kts 213°
2026-05-08 07:30 44.24795 -0.72138 15285 ft 282 kts 214°
2026-05-08 07:30 44.23185 -0.73699 15010 ft 281 kts 214°
2026-05-08 07:30 44.21589 -0.75253 14725 ft 279 kts 214°
2026-05-08 07:30 44.19997 -0.76798 14453 ft 278 kts 214°
2026-05-08 07:31 44.18410 -0.78330 14169 ft 278 kts 214°
2026-05-08 07:31 44.16820 -0.79858 13880 ft 277 kts 214°
2026-05-08 07:31 44.15237 -0.81375 13582 ft 276 kts 214°
2026-05-08 07:31 44.13645 -0.82896 13222 ft 277 kts 213°
2026-05-08 07:32 44.12065 -0.84404 12955 ft 275 kts 213°
2026-05-08 07:32 44.10494 -0.85900 12693 ft 272 kts 213°
2026-05-08 07:32 44.08933 -0.87386 12398 ft 271 kts 213°
2026-05-08 07:32 44.07380 -0.88862 12122 ft 270 kts 213°
2026-05-08 07:33 44.05830 -0.90334 11838 ft 269 kts 213°
2026-05-08 07:33 44.04288 -0.91797 11568 ft 268 kts 213°
2026-05-08 07:33 44.02749 -0.93257 11286 ft 268 kts 213°
2026-05-08 07:33 44.01214 -0.94712 11002 ft 267 kts 213°
2026-05-08 07:34 43.99682 -0.96162 10729 ft 266 kts 213°
2026-05-08 07:34 43.98156 -0.97607 10453 ft 265 kts 213°
2026-05-08 07:34 43.96633 -0.99046 10182 ft 264 kts 213°
2026-05-08 07:34 43.95127 -1.00471 10032 ft 258 kts 213°
2026-05-08 07:35 43.93654 -1.01862 9821 ft 256 kts 213°
2026-05-08 07:35 43.92184 -1.03250 9540 ft 255 kts 213°
2026-05-08 07:35 43.90726 -1.04626 9269 ft 253 kts 213°
2026-05-08 07:35 43.89743 -1.05552 9093 ft 252 kts 213°
2026-05-08 07:36 43.88295 -1.06916 8832 ft 251 kts 212°
2026-05-08 07:36 43.86853 -1.08275 8570 ft 250 kts 212°
2026-05-08 07:36 43.85417 -1.09626 8313 ft 249 kts 212°
2026-05-08 07:36 43.83985 -1.10974 8049 ft 248 kts 212°
2026-05-08 07:37 43.82559 -1.12315 7801 ft 247 kts 212°
2026-05-08 07:37 43.81136 -1.13653 7547 ft 249 kts 212°
2026-05-08 07:37 43.79687 -1.15015 7320 ft 255 kts 212°
2026-05-08 07:37 43.78203 -1.16406 7051 ft 258 kts 212°
2026-05-08 07:38 43.76722 -1.17795 6790 ft 257 kts 212°
2026-05-08 07:38 43.75235 -1.19173 6515 ft 257 kts 208°
2026-05-08 07:38 43.73571 -1.19973 6244 ft 253 kts 188°
2026-05-08 07:38 43.71839 -1.20356 5980 ft 252 kts 188°
2026-05-08 07:39 43.70112 -1.20752 5703 ft 251 kts 188°
2026-05-08 07:39 43.68394 -1.21156 5435 ft 250 kts 188°
2026-05-08 07:39 43.66681 -1.21564 5187 ft 249 kts 188°
2026-05-08 07:39 43.64974 -1.21973 4919 ft 249 kts 188°
2026-05-08 07:40 43.63274 -1.22382 4688 ft 246 kts 188°
2026-05-08 07:40 43.61590 -1.22787 4430 ft 245 kts 188°
2026-05-08 07:40 43.59911 -1.23189 4170 ft 244 kts 188°
2026-05-08 07:40 43.58242 -1.23585 3903 ft 243 kts 188°
2026-05-08 07:41 43.56580 -1.23979 3642 ft 242 kts 188°
2026-05-08 07:41 43.54937 -1.24368 3523 ft 235 kts 188°
2026-05-08 07:41 43.53353 -1.24741 3452 ft 227 kts 188°
2026-05-08 07:41 43.51830 -1.25097 3391 ft 218 kts 188°
2026-05-08 07:42 43.50368 -1.25438 3335 ft 209 kts 188°
2026-05-08 07:42 43.48942 -1.25784 3306 ft 207 kts 193°
2026-05-08 07:42 43.47721 -1.26806 3243 ft 212 kts 232°
2026-05-08 07:42 43.47283 -1.28697 3266 ft 207 kts 262°
2026-05-08 07:43 43.47163 -1.30681 3089 ft 208 kts 263°
2026-05-08 07:43 43.47100 -1.32668 2831 ft 208 kts 265°
2026-05-08 07:43 43.47072 -1.34638 2562 ft 204 kts 266°
2026-05-08 07:43 43.47047 -1.36587 2308 ft 199 kts 266°
2026-05-08 07:44 43.47022 -1.38447 2047 ft 187 kts 266°
2026-05-08 07:44 43.46997 -1.40168 1795 ft 169 kts 266°
2026-05-08 07:44 43.46976 -1.41720 1560 ft 156 kts 266°
2026-05-08 07:44 43.46955 -1.43200 1374 ft 155 kts 266°
2026-05-08 07:45 43.46935 -1.44682 1172 ft 155 kts 266°
2026-05-08 07:45 43.46919 -1.46165 958 ft 156 kts 268°
2026-05-08 07:45 43.46893 -1.47655 745 ft 155 kts 267°
2026-05-08 07:45 43.46869 -1.49134 524 ft 154 kts 269°
2026-05-08 07:46 43.46858 -1.50616 313 ft 152 kts 269°
2026-05-08 07:46 43.46841 -1.52015 239 ft 126 kts 269°
2026-05-08 07:46 43.46833 -1.52853 244 ft 38 kts 272°
2026-05-08 07:46 43.46840 -1.53105 245 ft 19 kts 300°
2026-05-08 07:47 43.46931 -1.53181 244 ft 8 kts 333°
2026-05-08 07:47 43.46941 -1.53188 244 ft 0 kts 333°
2026-05-08 07:48 43.46942 -1.53189 244 ft 0 kts 333°
2026-05-08 07:48 43.46955 -1.53197 244 ft 4 kts 337°
2026-05-08 07:48 43.47003 -1.53197 244 ft 9 kts 17°
2026-05-08 07:48 43.47051 -1.53119 244 ft 13 kts 79°
2026-05-08 07:49 43.47053 -1.53010 244 ft 8 kts 90°
2026-05-08 07:49 43.47053 -1.52963 244 ft 4 kts 89°
2026-05-08 07:49 43.47060 -1.52926 244 ft 4 kts 47°
2026-05-08 07:49 43.47088 -1.52922 244 ft 4 kts
2026-05-08 07:50 43.47113 -1.52922 244 ft 2 kts 360°
2026-05-08 07:50 43.47119 -1.52922 244 ft 0 kts 359°
2026-05-08 07:50 43.47122 -1.52922 244 ft 0 kts 359°